Time,TemperatureF,DewpointF,PressureIn,WindDirection,WindDirectionDegrees,WindSpeedMPH,WindSpeedGustMPH,Humidity,HourlyPrecipIn,Conditions,Clouds,dailyrainin,SoftwareType,DateUTC
2013-01-18 00:03:00,28.0,15.0,-100.00,NW,320,10.0,23.0,57,-99.99,,,-99.99,,2013-01-18 05:03:00,
2013-01-18 00:12:00,27.0,14.0,-100.00,NW,305,9.0,23.0,56,-99.99,,,-99.99,,2013-01-18 05:12:00,
2013-01-18 00:22:00,27.0,13.0,-100.00,WNW,295,9.0,22.0,55,-99.99,,,-99.99,,2013-01-18 05:22:00,
2013-01-18 00:33:00,26.0,13.0,-100.00,NW,310,6.0,22.0,55,-99.99,,,-99.99,,2013-01-18 05:33:00,
2013-01-18 00:42:00,26.0,12.0,-100.00,WNW,300,9.0,20.0,55,-99.99,,,-99.99,,2013-01-18 05:42:00,
2013-01-18 00:52:00,26.0,12.0,-100.00,WNW,285,9.0,21.0,54,-99.99,,,-99.99,,2013-01-18 05:52:00,
2013-01-18 01:02:00,25.0,11.0,-100.00,WNW,290,8.0,22.0,53,-99.99,,,-99.99,,2013-01-18 06:02:00,
2013-01-18 01:12:00,25.0,10.0,-100.00,NW,305,11.0,20.0,53,-99.99,,,-99.99,,2013-01-18 06:12:00,
2013-01-18 01:22:00,25.0,9.0,-100.00,West,265,9.0,17.0,51,-99.99,,,-99.99,,2013-01-18 06:22:00,
2013-01-18 01:33:00,24.0,9.0,-100.00,West,275,8.0,22.0,50,-99.99,,,-99.99,,2013-01-18 06:33:00,
2013-01-18 01:43:00,24.0,9.0,-100.00,West,275,8.0,22.0,50,-99.99,,,-99.99,,2013-01-18 06:43:00,
2013-01-18 01:52:00,24.0,8.0,-100.00,WNW,290,9.0,23.0,49,-99.99,,,-99.99,,2013-01-18 06:52:00,
2013-01-18 02:02:00,24.0,7.0,-100.00,WNW,300,11.0,20.0,48,-99.99,,,-99.99,,2013-01-18 07:02:00,
2013-01-18 02:12:00,24.0,7.0,-100.00,WNW,300,11.0,20.0,48,-99.99,,,-99.99,,2013-01-18 07:12:00,
2013-01-18 02:22:00,24.0,7.0,-100.00,West,280,6.0,18.0,48,-99.99,,,-99.99,,2013-01-18 07:22:00,
2013-01-18 02:32:00,24.0,7.0,-100.00,West,265,8.0,14.0,47,-99.99,,,-99.99,,2013-01-18 07:32:00,
2013-01-18 02:42:00,24.0,7.0,-100.00,WNW,290,7.0,19.0,47,-99.99,,,-99.99,,2013-01-18 07:42:00,
2013-01-18 02:52:00,24.0,6.0,-100.00,WNW,295,10.0,18.0,47,-99.99,,,-99.99,,2013-01-18 07:52:00,
2013-01-18 03:02:00,24.0,7.0,-100.00,NW,305,12.0,20.0,47,-99.99,,,-99.99,,2013-01-18 08:02:00,
2013-01-18 03:12:00,24.0,7.0,-100.00,WNW,290,9.0,18.0,47,-99.99,,,-99.99,,2013-01-18 08:12:00,
2013-01-18 03:22:00,24.0,6.0,-100.00,West,275,9.0,19.0,47,-99.99,,,-99.99,,2013-01-18 08:22:00,
2013-01-18 03:32:00,23.0,6.0,-100.00,West,270,14.0,21.0,45,-99.99,,,-99.99,,2013-01-18 08:32:00,
2013-01-18 03:42:00,23.0,6.0,-100.00,West,270,14.0,21.0,45,-99.99,,,-99.99,,2013-01-18 08:42:00,
2013-01-18 03:52:00,23.0,6.0,-100.00,WNW,295,9.0,20.0,45,-99.99,,,-99.99,,2013-01-18 08:52:00,
2013-01-18 04:03:00,24.0,6.0,-100.00,West,260,9.0,16.0,46,-99.99,,,-99.99,,2013-01-18 09:03:00,
2013-01-18 04:12:00,24.0,6.0,-100.00,West,275,7.0,15.0,47,-99.99,,,-99.99,,2013-01-18 09:12:00,
2013-01-18 04:22:00,24.0,7.0,-100.00,West,270,6.0,19.0,48,-99.99,,,-99.99,,2013-01-18 09:22:00,
2013-01-18 04:33:00,24.0,7.0,-100.00,West,270,6.0,19.0,48,-99.99,,,-99.99,,2013-01-18 09:33:00,
2013-01-18 04:42:00,24.0,7.0,-100.00,West,260,7.0,16.0,48,-99.99,,,-99.99,,2013-01-18 09:42:00,
2013-01-18 04:52:00,24.0,7.0,-100.00,West,260,9.0,17.0,47,-99.99,,,-99.99,,2013-01-18 09:52:00,
2013-01-18 05:03:00,24.0,7.0,-100.00,West,265,8.0,16.0,47,-99.99,,,-99.99,,2013-01-18 10:03:00,
2013-01-18 05:12:00,24.0,7.0,-100.00,West,270,9.0,16.0,47,-99.99,,,-99.99,,2013-01-18 10:12:00,
2013-01-18 05:22:00,24.0,7.0,-100.00,West,280,7.0,16.0,47,-99.99,,,-99.99,,2013-01-18 10:22:00,
2013-01-18 05:32:00,24.0,7.0,-100.00,WNW,295,7.0,13.0,47,-99.99,,,-99.99,,2013-01-18 10:32:00,
2013-01-18 05:42:00,24.0,7.0,-100.00,WSW,245,6.0,15.0,47,-99.99,,,-99.99,,2013-01-18 10:42:00,
2013-01-18 05:52:00,24.0,8.0,-100.00,West,275,7.0,15.0,48,-99.99,,,-99.99,,2013-01-18 10:52:00,
2013-01-18 06:02:00,24.0,8.0,-100.00,WSW,245,7.0,20.0,49,-99.99,,,-99.99,,2013-01-18 11:02:00,
2013-01-18 06:12:00,24.0,8.0,-100.00,WSW,240,9.0,17.0,48,-99.99,,,-99.99,,2013-01-18 11:12:00,
2013-01-18 06:23:00,24.0,8.0,-100.00,NW,305,6.0,14.0,49,-99.99,,,-99.99,,2013-01-18 11:23:00,
2013-01-18 06:32:00,24.0,8.0,-100.00,WNW,290,7.0,17.0,50,-99.99,,,-99.99,,2013-01-18 11:32:00,
2013-01-18 06:42:00,24.0,8.0,-100.00,WNW,295,5.0,10.0,50,-99.99,,,-99.99,,2013-01-18 11:42:00,
2013-01-18 06:52:00,24.0,9.0,-100.00,WNW,285,6.0,11.0,51,-99.99,,,-99.99,,2013-01-18 11:52:00,
2013-01-18 07:03:00,24.0,9.0,-100.00,WNW,285,7.0,13.0,51,-99.99,,,-99.99,,2013-01-18 12:03:00,
2013-01-18 07:12:00,24.0,9.0,-100.00,WSW,250,6.0,12.0,51,-99.99,,,-99.99,,2013-01-18 12:12:00,
2013-01-18 07:22:00,24.0,9.0,-100.00,West,270,4.0,10.0,51,-99.99,,,-99.99,,2013-01-18 12:22:00,
2013-01-18 07:33:00,24.0,9.0,-100.00,West,275,4.0,11.0,51,-99.99,,,-99.99,,2013-01-18 12:33:00,
2013-01-18 07:43:00,24.0,9.0,-100.00,WSW,250,4.0,10.0,51,-99.99,,,-99.99,,2013-01-18 12:43:00,
2013-01-18 07:52:00,24.0,9.0,-100.00,WSW,250,4.0,10.0,51,-99.99,,,-99.99,,2013-01-18 12:52:00,
2013-01-18 08:03:00,25.0,10.0,-100.00,WSW,250,6.0,11.0,52,-99.99,,,-99.99,,2013-01-18 13:03:00,
2013-01-18 08:12:00,25.0,10.0,-100.00,WSW,255,4.0,7.0,53,-99.99,,,-99.99,,2013-01-18 13:12:00,
2013-01-18 08:23:00,25.0,11.0,-100.00,WSW,255,5.0,9.0,53,-99.99,,,-99.99,,2013-01-18 13:23:00,
2013-01-18 08:33:00,25.0,11.0,-100.00,WSW,240,4.0,9.0,54,-99.99,,,-99.99,,2013-01-18 13:33:00,
2013-01-18 08:43:00,26.0,12.0,-100.00,WSW,255,3.0,6.0,55,-99.99,,,-99.99,,2013-01-18 13:43:00,
2013-01-18 08:53:00,26.0,12.0,-100.00,SSE,150,3.0,9.0,56,-99.99,,,-99.99,,2013-01-18 13:53:00,
2013-01-18 09:03:00,25.0,13.0,-100.00,ESE,105,3.0,9.0,58,-99.99,,,-99.99,,2013-01-18 14:03:00,
2013-01-18 09:12:00,25.0,13.0,-100.00,SSE,160,4.0,8.0,58,-99.99,,,-99.99,,2013-01-18 14:12:00,
2013-01-18 09:23:00,25.0,13.0,-100.00,South,185,4.0,9.0,58,-99.99,,,-99.99,,2013-01-18 14:23:00,
2013-01-18 09:34:00,25.0,12.0,-100.00,SSE,160,5.0,11.0,56,-99.99,,,-99.99,,2013-01-18 14:34:00,
2013-01-18 09:42:00,25.0,12.0,-100.00,SSW,205,4.0,9.0,55,-99.99,,,-99.99,,2013-01-18 14:42:00,
2013-01-18 09:53:00,26.0,12.0,-100.00,SSE,160,4.0,7.0,54,-99.99,,,-99.99,,2013-01-18 14:53:00,
2013-01-18 10:03:00,26.0,12.0,-100.00,SSE,165,2.0,7.0,54,-99.99,,,-99.99,,2013-01-18 15:03:00,
2013-01-18 10:13:00,26.0,12.0,-100.00,South,175,4.0,9.0,54,-99.99,,,-99.99,,2013-01-18 15:13:00,
2013-01-18 10:23:00,26.0,12.0,-100.00,South,175,6.0,12.0,53,-99.99,,,-99.99,,2013-01-18 15:23:00,
2013-01-18 10:34:00,27.0,12.0,-100.00,SSE,165,3.0,9.0,52,-99.99,,,-99.99,,2013-01-18 15:34:00,
2013-01-18 10:43:00,27.0,12.0,-100.00,SW,220,5.0,9.0,51,-99.99,,,-99.99,,2013-01-18 15:43:00,
2013-01-18 10:53:00,28.0,12.0,-100.00,South,170,4.0,9.0,50,-99.99,,,-99.99,,2013-01-18 15:53:00,
2013-01-18 11:03:00,28.0,12.0,-100.00,WSW,250,7.0,14.0,49,-99.99,,,-99.99,,2013-01-18 16:03:00,
2013-01-18 11:12:00,28.0,12.0,-100.00,SW,215,7.0,12.0,48,-99.99,,,-99.99,,2013-01-18 16:12:00,
2013-01-18 11:23:00,29.0,11.0,-100.00,WSW,240,9.0,14.0,47,-99.99,,,-99.99,,2013-01-18 16:23:00,
2013-01-18 11:33:00,29.0,11.0,-100.00,WSW,240,7.0,14.0,47,-99.99,,,-99.99,,2013-01-18 16:33:00,
2013-01-18 11:43:00,29.0,12.0,-100.00,WSW,245,6.0,12.0,47,-99.99,,,-99.99,,2013-01-18 16:43:00,
2013-01-18 11:52:00,30.0,12.0,-100.00,SW,230,7.0,11.0,47,-99.99,,,-99.99,,2013-01-18 16:52:00,
2013-01-18 12:03:00,31.0,13.0,-100.00,SW,225,4.0,11.0,46,-99.99,,,-99.99,,2013-01-18 17:03:00,
2013-01-18 12:13:00,31.0,12.0,-100.00,SW,235,4.0,12.0,45,-99.99,,,-99.99,,2013-01-18 17:13:00,
2013-01-18 12:23:00,32.0,12.0,-100.00,South,190,6.0,10.0,44,-99.99,,,-99.99,,2013-01-18 17:23:00,
2013-01-18 12:33:00,32.0,13.0,-100.00,SSW,195,5.0,11.0,44,-99.99,,,-99.99,,2013-01-18 17:33:00,
2013-01-18 12:43:00,32.0,13.0,-100.00,SW,235,6.0,9.0,44,-99.99,,,-99.99,,2013-01-18 17:43:00,
2013-01-18 12:53:00,33.0,14.0,-100.00,SW,225,6.0,14.0,45,-99.99,,,-99.99,,2013-01-18 17:53:00,
2013-01-18 13:03:00,33.0,14.0,-100.00,SW,225,5.0,14.0,45,-99.99,,,-99.99,,2013-01-18 18:03:00,
2013-01-18 13:13:00,34.0,15.0,-100.00,SSW,205,4.0,14.0,43,-99.99,,,-99.99,,2013-01-18 18:13:00,
2013-01-18 13:23:00,38.0,17.0,-100.00,South,185,6.0,13.0,42,-99.99,,,-99.99,,2013-01-18 18:23:00,
2013-01-18 13:33:00,45.0,23.0,-100.00,SSW,200,6.0,12.0,41,-99.99,,,-99.99,,2013-01-18 18:33:00,
2013-01-18 13:43:00,46.0,24.0,-100.00,South,185,7.0,16.0,40,-99.99,,,-99.99,,2013-01-18 18:43:00,
2013-01-18 13:52:00,44.0,22.0,-100.00,SSE,155,4.0,14.0,39,-99.99,,,-99.99,,2013-01-18 18:52:00,
2013-01-18 14:03:00,43.0,20.0,-100.00,South,175,5.0,13.0,39,-99.99,,,-99.99,,2013-01-18 19:03:00,
2013-01-18 14:13:00,43.0,20.0,-100.00,South,175,7.0,12.0,39,-99.99,,,-99.99,,2013-01-18 19:13:00,
2013-01-18 14:23:00,42.0,18.0,-100.00,SSW,205,8.0,13.0,38,-99.99,,,-99.99,,2013-01-18 19:23:00,
2013-01-18 14:33:00,40.0,17.0,-100.00,SSE,155,6.0,14.0,38,-99.99,,,-99.99,,2013-01-18 19:33:00,
2013-01-18 14:43:00,40.0,17.0,-100.00,SSE,155,4.0,11.0,38,-99.99,,,-99.99,,2013-01-18 19:43:00,
2013-01-18 14:52:00,39.0,16.0,-100.00,South,185,4.0,9.0,38,-99.99,,,-99.99,,2013-01-18 19:52:00,
2013-01-18 15:03:00,39.0,16.0,-100.00,SSE,160,3.0,12.0,38,-99.99,,,-99.99,,2013-01-18 20:03:00,
2013-01-18 15:13:00,39.0,16.0,-100.00,SSE,160,3.0,12.0,38,-99.99,,,-99.99,,2013-01-18 20:13:00,
2013-01-18 15:23:00,39.0,15.0,-100.00,SE,145,4.0,13.0,37,-99.99,,,-99.99,,2013-01-18 20:23:00,
2013-01-18 15:33:00,39.0,15.0,-100.00,South,170,4.0,11.0,37,-99.99,,,-99.99,,2013-01-18 20:33:00,
2013-01-18 15:43:00,39.0,16.0,-100.00,SSW,195,2.0,12.0,37,-99.99,,,-99.99,,2013-01-18 20:43:00,
2013-01-18 15:53:00,39.0,16.0,-100.00,West,265,2.0,12.0,37,-99.99,,,-99.99,,2013-01-18 20:53:00,
2013-01-18 16:03:00,39.0,15.0,-100.00,South,185,3.0,12.0,37,-99.99,,,-99.99,,2013-01-18 21:03:00,
2013-01-18 16:13:00,39.0,15.0,-100.00,South,175,7.0,14.0,36,-99.99,,,-99.99,,2013-01-18 21:13:00,
2013-01-18 16:23:00,39.0,14.0,-100.00,South,175,8.0,19.0,35,-99.99,,,-99.99,,2013-01-18 21:23:00,
2013-01-18 16:33:00,39.0,15.0,-100.00,South,170,6.0,16.0,35,-99.99,,,-99.99,,2013-01-18 21:33:00,
2013-01-18 16:43:00,39.0,15.0,-100.00,South,170,6.0,15.0,36,-99.99,,,-99.99,,2013-01-18 21:43:00,
2013-01-18 16:52:00,39.0,14.0,-100.00,South,190,9.0,19.0,36,-99.99,,,-99.99,,2013-01-18 21:52:00,
2013-01-18 17:03:00,39.0,14.0,-100.00,SSE,165,4.0,12.0,36,-99.99,,,-99.99,,2013-01-18 22:03:00,
2013-01-18 17:12:00,38.0,14.0,-100.00,South,185,5.0,14.0,36,-99.99,,,-99.99,,2013-01-18 22:12:00,
2013-01-18 17:23:00,38.0,14.0,-100.00,South,175,6.0,16.0,37,-99.99,,,-99.99,,2013-01-18 22:23:00,
2013-01-18 17:33:00,38.0,14.0,-100.00,SSE,155,6.0,15.0,37,-99.99,,,-99.99,,2013-01-18 22:33:00,
2013-01-18 17:43:00,38.0,15.0,-100.00,SSE,165,5.0,17.0,38,-99.99,,,-99.99,,2013-01-18 22:43:00,
2013-01-18 17:52:00,37.0,15.0,-100.00,SSE,155,4.0,14.0,38,-99.99,,,-99.99,,2013-01-18 22:52:00,
2013-01-18 18:03:00,37.0,15.0,-100.00,SSE,150,5.0,14.0,39,-99.99,,,-99.99,,2013-01-18 23:03:00,
2013-01-18 18:12:00,37.0,15.0,-100.00,South,180,5.0,14.0,39,-99.99,,,-99.99,,2013-01-18 23:12:00,
2013-01-18 18:22:00,37.0,15.0,-100.00,South,180,5.0,14.0,39,-99.99,,,-99.99,,2013-01-18 23:22:00,
2013-01-18 18:33:00,37.0,14.0,-100.00,SE,140,4.0,16.0,39,-99.99,,,-99.99,,2013-01-18 23:33:00,
2013-01-18 18:43:00,37.0,14.0,-100.00,SSE,160,4.0,15.0,39,-99.99,,,-99.99,,2013-01-18 23:43:00,
2013-01-18 18:52:00,37.0,15.0,-100.00,SE,130,4.0,17.0,39,-99.99,,,-99.99,,2013-01-18 23:52:00,
2013-01-18 19:02:00,37.0,15.0,-100.00,SSE,155,3.0,18.0,40,-99.99,,,-99.99,,2013-01-19 00:02:00,
2013-01-18 19:12:00,37.0,15.0,-100.00,South,185,9.0,17.0,40,-99.99,,,-99.99,,2013-01-19 00:12:00,
2013-01-18 19:23:00,37.0,15.0,-100.00,South,170,6.0,16.0,40,-99.99,,,-99.99,,2013-01-19 00:23:00,
2013-01-18 19:33:00,37.0,15.0,-100.00,South,170,7.0,22.0,40,-99.99,,,-99.99,,2013-01-19 00:33:00,
2013-01-18 19:43:00,36.0,15.0,-100.00,South,175,7.0,17.0,41,-99.99,,,-99.99,,2013-01-19 00:43:00,
2013-01-18 19:53:00,36.0,15.0,-100.00,SSE,150,5.0,17.0,41,-99.99,,,-99.99,,2013-01-19 00:53:00,
2013-01-18 20:02:00,36.0,15.0,-100.00,SSE,155,7.0,17.0,41,-99.99,,,-99.99,,2013-01-19 01:02:00,
2013-01-18 20:12:00,36.0,15.0,-100.00,South,180,4.0,15.0,42,-99.99,,,-99.99,,2013-01-19 01:12:00,
2013-01-18 20:22:00,36.0,15.0,-100.00,SSE,155,6.0,16.0,43,-99.99,,,-99.99,,2013-01-19 01:22:00,
2013-01-18 20:33:00,36.0,16.0,-100.00,SE,145,9.0,18.0,43,-99.99,,,-99.99,,2013-01-19 01:33:00,
2013-01-18 20:42:00,36.0,16.0,-100.00,SE,145,8.0,20.0,43,-99.99,,,-99.99,,2013-01-19 01:42:00,
2013-01-18 20:52:00,37.0,16.0,-100.00,SSE,160,7.0,21.0,43,-99.99,,,-99.99,,2013-01-19 01:52:00,
2013-01-18 21:03:00,36.0,16.0,-100.00,SSE,165,8.0,19.0,43,-99.99,,,-99.99,,2013-01-19 02:03:00,
2013-01-18 21:12:00,37.0,16.0,-100.00,South,170,10.0,24.0,42,-99.99,,,-99.99,,2013-01-19 02:12:00,
2013-01-18 21:23:00,37.0,16.0,-100.00,SSE,150,7.0,19.0,42,-99.99,,,-99.99,,2013-01-19 02:23:00,
2013-01-18 21:33:00,37.0,16.0,-100.00,SSE,155,9.0,24.0,41,-99.99,,,-99.99,,2013-01-19 02:33:00,
2013-01-18 21:43:00,37.0,16.0,-100.00,SSE,150,9.0,22.0,41,-99.99,,,-99.99,,2013-01-19 02:43:00,
2013-01-18 21:53:00,38.0,16.0,-100.00,SSE,165,9.0,23.0,41,-99.99,,,-99.99,,2013-01-19 02:53:00,
2013-01-18 22:03:00,38.0,16.0,-100.00,SE,135,9.0,20.0,40,-99.99,,,-99.99,,2013-01-19 03:03:00,
2013-01-18 22:12:00,39.0,16.0,-100.00,South,190,11.0,21.0,39,-99.99,,,-99.99,,2013-01-19 03:12:00,
2013-01-18 22:22:00,39.0,16.0,-100.00,South,170,11.0,24.0,38,-99.99,,,-99.99,,2013-01-19 03:22:00,
2013-01-18 22:33:00,39.0,16.0,-100.00,SSE,155,11.0,27.0,37,-99.99,,,-99.99,,2013-01-19 03:33:00,
2013-01-18 22:52:00,39.0,16.0,-100.00,SSE,165,8.0,25.0,37,-99.99,,,-99.99,,2013-01-19 03:52:00,
2013-01-18 23:02:00,39.0,16.0,-100.00,SSE,150,9.0,24.0,37,-99.99,,,-99.99,,2013-01-19 04:02:00,
2013-01-18 23:12:00,39.0,16.0,-100.00,South,180,12.0,24.0,37,-99.99,,,-99.99,,2013-01-19 04:12:00,
2013-01-18 23:22:00,40.0,16.0,-100.00,SSE,155,10.0,22.0,37,-99.99,,,-99.99,,2013-01-19 04:22:00,
2013-01-18 23:33:00,40.0,16.0,-100.00,South,170,9.0,17.0,36,-99.99,,,-99.99,,2013-01-19 04:33:00,
2013-01-18 23:42:00,40.0,16.0,-100.00,SSE,150,9.0,23.0,36,-99.99,,,-99.99,,2013-01-19 04:42:00,
2013-01-18 23:52:00,40.0,16.0,-100.00,SSW,200,7.0,20.0,36,-99.99,,,-99.99,,2013-01-19 04:52:00,